SL-14 R/B, 19791

Orbit data source: Space-Track

SL-14 R/B, 19791 is space debris in LEO originally from a launch on Fri, 10 Feb 1989 UTC launched from the Plesetsk Missile And Space Complex (PKMTR). Debris objects in space refer to the collection of defunct objects orbiting the Earth. Examples of debris include non-operational satellites, rocket bodies, and fragments generated from explosions, collisions, or faulty payload assembly.

Loading next visibility...
Identifier
19791, 1989-009G
Orbit
LEO
Country
Flag of CISCIS
Related business
Manufacturer
Yuzhnoe
Mission
Spacecraft
Bus & Motor
S5M, Unknown motor
Mass
1,600 kg wet, 1,600 kg dry
Launch date (UTC)
1989-02-10 (37 years ago)
Launch vehicle
Unknown
Launch site
Plesetsk Missile And Space Complex (PKMTR)
Object type
Payload
Rocket body
Debris
Shape & HBR
Cyl, 1.4 m
Radar Cross Section
7.351 m², Large (>1 m²)

Expand to show TLE details & history
Last TLE update: 1 day ago

TLE from 1 day ago
0 SL-14 R/B
1 19791U 89009G   25306.43790840  .00000019  00000-0  52267-4 0  9990
2 19791  82.6096 274.1647 0035867  87.9301  27.8834 12.54879386682111
Epoch: 2025-11-02T10:30Z
TLE epoch observation values (Epoch: 2025-11-02T10:30:35.285Z)
Latitude
63.11834°
Longitude
-120.18626°
Altitude
1,430.183 km
Speed
7.163 km/s
True Right ascension
05h 17m 39s
True Declination
62° 59' 29"
Sunlit
Object was in daylight at epoch
Visualization orbit readout
Latitude
Unknown
Longitude
Unknown
Altitude
Unknown
Speed
Unknown
Apparent Right ascension
Unknown
Apparent Declination
Unknown
Sunlit
N/A
Visualization observer readout
Local Sidereal Time
06:47:01
Azimuth
Unknown
Elevation
Unknown
Doppler factor
Unknown
Orbital elements
Apogee altitude
1,469.529 km
Perigee altitude
1,413.435 km
Semi-major axis
7,819.619 km
Eccentricity
0.00359
Inclination
82.6096°
RAAN
274.1647°
Arg. of periapsis
87.9301°
True anomaly
28.07638°
Mean anomaly
27.8834°
Eccentric anomaly
27.97981°
Mean motion
3.13881 °/min
Orbital period
114.69 mins
BSTAR
0.000052267
Loading maneuver chart data...
Computing Atmospheric mass density...
Loading historical data...
Loading historical data...
Loading historical data...
Loading historical data...
Loading historical data...
Loading historical data...
Loading historical data...

Documentation

Showing up to 5 results
|